カタログに戻る

CZ-4 DEB

運用中SSO
NORAD 35320·DEBRIS·🇨🇳 China

打ち上げ Oct 14, 1999 から Taiyuan Satellite Launch Center

Loading…

次のパス (今後24時間)

TLE

最新Source: Space-Track

元期: Sep 13, 2026, 07:18 UTC

1 35320U 99057RY  26256.30454426  .00002151  00000-0  26755-3 0  9999
2 35320  98.2712 284.6440 0000635  63.1193 297.0085 14.83640964 58604

AllMySatでCZ-4 DEBをリアルタイム追跡

Download on the App Store